Tracking 19709 objects as of 19-Jun-2019
HD Live streaming from Space Station
objects crossing your sky now

CICERO 10

Track CICERO 10 now!
10-day predictions


NORAD ID: 43690
Int'l Code: 2018-088A
Perigee: 504.2 km
Apogee: 523.9 km
Inclination: 85.0 °
Period: 94.8 minutes
Semi major axis: 6885 km
RCS: Unknown
Launch date: November 11, 2018
Source: United States (US)
Launch site: Rocket Lab Launch Complex (RLLC)
aabbcc
Your satellite tracking list
Your tracking list is empty




NASA's NSSDC Master Catalog

Two Line Element Set (TLE):
1 43690U 18088A   19170.15372964  .00000757  00000-0  33583-4 0  9997
2 43690  85.0372 318.2012 0014304 197.9138 162.1600 15.19652050 33406
Source of the keplerian elements: AFSPC